Regional Weather Roundup
Issued by NWS

Home | Current Version | Previous Version | Text Only | Print | Product List | Glossary On
Versions: 1 2 3 4 5 6 7 8 9 10 11 12 13 14 15 16 17 18 19 20 21 22 23 24 25 26 27 28 29 30 31 32 33 34 35 36 37 38 39 40 41 42 43 44 45 46 47 48 49 50
000
ASHW40 PHFO 311210
RWRHI

WEATHER ROUNDUP FOR HAWAII
NATIONAL WEATHER SERVICE HONOLULU HI
200 AM HST SAT JAN 31 2015

THIS IS AN AUTOMATED REPORT THAT HAS NOT BEEN QUALITY CONTROLLED.

NOTE..."FAIR" INDICATES FEW OR NO CLOUDS BELOW 12,000 FEET WITH NO
SIGNIFICANT WEATHER AND/OR OBSTRUCTIONS TO VISIBILITY.

* - THESE SITES REPORT LIMITED FIELDS

HIZ001>004-311300-
KAUAI-NIIHAU-

CITY           SKY/WX    TMP DP  RH WIND       PRES   REMARKS
LIHUE APT      PTCLDY    61  55  81 W6        30.02F
PORT ALLEN*      N/A     61 N/A N/A NE6         N/A
POIPU*           N/A     57 N/A N/A N3          N/A
PRINCEVILLE*     N/A     59 N/A N/A MISG        N/A
KOKOLE POINT*  NOT AVBL
MOLOAA DAIRY*  NOT AVBL
WAIMEA HTS*    NOT AVBL
PUU OPAE*      NOT AVBL
PUU LUA*       NOT AVBL
MAKAHA RIDGE*  NOT AVBL
$$

HIZ005>011-311300-
OAHU-

CITY           SKY/WX    TMP DP  RH WIND       PRES   REMARKS
HONOLULU       MOCLDY    69  63  81 NW8       30.00S
KALAELOA       CLOUDY    69  61  75 CALM      30.02S
KANEOHE MCB    MOCLDY    71  62  72 VRB5      29.99S
WHEELER FIELD  FAIR      63  60  91 NW5       30.02S
BELLOWS*       NOT AVBL
KAHUKU*        NOT AVBL
WHEELER*       NOT AVBL
WAIANAE HARBOR NOT AVBL
DILLINGHAM*      N/A     66  61  82 MISG        N/A
KAHUKU TRN*      N/A     64  61  88 S3          N/A
KAWAILOA*        N/A     63  59  88 CALM        N/A
KII*             N/A     64  61  88 CALM        N/A
MAKUA RANGE*     N/A     66  59  77 SE6         N/A
OAHU FOREST NW NOT AVBL
SCHOFIELD BRK*   N/A     61  59  94 MISG        N/A
SCHOFIELD S*   NOT AVBL
WAIANAE VLY*   NOT AVBL
KUAOKALA*      NOT AVBL
HONOULIUULI*   NOT AVBL
MOKUOLOE IS*   NOT AVBL
PALEHUA*       NOT AVBL
WAIAWA PHB*    NOT AVBL
$$

HIZ012>013-311300-
MOLOKAI-

CITY           SKY/WX    TMP DP  RH WIND       PRES   REMARKS
MOLOKAI AIRPT  CLOUDY    68  67  96 N5        30.01S
KALAUPAPA      NOT AVBL
MAKAPULAPAI*   NOT AVBL
MOLOKAI 1*     NOT AVBL
PUU ALII*      NOT AVBL
$$

HIZ016-311300-
KAHOOLAWE-

CITY           SKY/WX    TMP DP  RH WIND       PRES   REMARKS
KAHOOLAWE*     NOT AVBL
HAKIOAWA*      NOT AVBL
HONOKANAIA*      N/A     71  66  85 VRB6G12     N/A
KANELOA*         N/A     73  68  83 MISG      29.22S
KEALIALALO*    NOT AVBL
LUA MAKIKA*    NOT AVBL
$$

HIZ014>015-311300-
LANAI-

CITY           SKY/WX    TMP DP  RH WIND       PRES   REMARKS
LANAI CITY     FAIR      63  63 100 NE5       30.05S
LANAI 1*       NOT AVBL
$$

HIZ017>028-311300-
MAUI-

CITY           SKY/WX    TMP DP  RH WIND       PRES   REMARKS
KAHULUI        PTCLDY    72  68  88 CALM      29.99S
KAPALUA-W MAUI NOT AVBL
HANA AIRPORT   CLOUDY    68  68 100 CALM      30.02S FOG
HANA*          NOT AVBL
HALEAKALA SUMM   N/A     37  16  41 SW10G28     N/A
MAALAEA BAY*   NOT AVBL
HALEAKALA*     NOT AVBL
KAUPO GAP*     NOT AVBL
KULA 1*          N/A     50  45  84 S9G16       N/A
$$

HIZ023>026-311300-
BIG ISLAND OF HAWAII COAST AND LOWER SLOPES-

CITY           SKY/WX    TMP DP  RH WIND       PRES   REMARKS
KAILUA KONA    CLOUDY    77  67  71 SE5       29.97S
HILO           CLOUDY    71  67  87 SW3       29.98F
HONOKAA*       NOT AVBL
KAWAIHAE MWT*  NOT AVBL
KAWAIHAE*        N/A     75 N/A N/A E1          N/A
SOUTH POINT*   NOT AVBL
UPOLU AIRPORT* NOT AVBL
KAMUELA*       NOT AVBL
HAKALAU*         N/A     48  48 100 S9          N/A
KALOKO-HONOKO* NOT AVBL
PALI 2*          N/A     59  59 100 CALM        N/A
KEALAKOMO*       N/A     75  66  73 W2          N/A
KAUPULEHU*     NOT AVBL
KAPAPALA*        N/A     63  62  96 CALM        N/A
LOWER KAHUKU*  NOT AVBL
PUHE CS*       NOT AVBL
PUHO CS*       NOT AVBL
PTA KEAMUKU*     N/A     59  55  88 CALM        N/A
WAIKOLOA*      NOT AVBL
$$

HIZ027>028-311300-
BIG ISLAND OF HAWAII INTERIOR AND SUMMMITS-

CITY           SKY/WX    TMP DP  RH WIND       PRES   REMARKS
BRADSHAW FIELD CLOUDY    40  36  85 SE1       30.29F
MK VISITOR CEN NOT AVBL
MAUNA KEA*       N/A     30 -11  16 NW22        N/A  WCI  17
MAUNA LOA*       N/A     37  -4  17 MISG        N/A
MAUNA LOA 1*   NOT AVBL
PTA KIPUKA*      N/A     52  50  93 E3          N/A
PTA RANGE 17*    N/A     50  48  93 NE1         N/A
PTA WEST*        N/A     57  52  82 E12         N/A
NENE CABIN*    NOT AVBL
AHUMOA*        NOT AVBL
PTA PORTABLE*  NOT AVBL
PUU MALI*      NOT AVBL
$$

HIC003-311300-
NORTHWEST ISLANDS-

CITY           SKY/WX    TMP DP  RH WIND       PRES   REMARKS
MIDWAY ISLAND  PTCLDY    55  45  67 CALM      30.07F
MIDWAY NOS*    NOT AVBL
FRENCH FRIGATE NOT AVBL
$$

PHZ110>124-180-311300-
BUOY REPORTS

STATION/POSITION TIME  TEMP    WIND        PRES    WAVE   SWELL
                       AIR SEA DIR/SP/G            HT/PER HT/DIR
                 (UTC) (F)     (DEG/KT/KT) (MB)    (FT/S) (FT/D)
BUOY 51001       NOT AVBL
BUOY 51101       1200   66 72  260/  8/ 12 1015.7F  11/13  11/310
BUOY 51100       1200   72 75   30/  2/  4 1015.6F
BUOY 51003       1100   75 78   50/  8/ 10 1016.2F   8/13   8
BUOY 51004       1120   77 78  100/ 12/ 14 1014.0F   7/ 8   7/100
BARBERS PT BUOY  NOT AVBL
WAIMEA BAY BUOY  1200      77                N/A     9/13   7/320
KAILUA BAY BUOY  1200      77                N/A     5/13   3/350
LANAI BUOY       1200      77                N/A     4/11   3/280
BARBERS PT 2     1200      77                N/A     5/13   3/320
PAUWELA MAUI     1200      76                N/A     9/13   7/310
HILO             1200      76                N/A     8/13   7/340
KANEOHE BAY BUOY 1200      76                N/A     5/12   3/350
HANALEI KAUAI    NOT AVBL
KAHULUI HARBOR   1200   72 77  320/  6/  7 1015.3F
HONOLULU HARBOR  1200   71 76   CALM  /  2 1016.1S
KILO NALU        NOT AVBL
HILO HARBOR      1200   72 77   CALM  /  4 1015.0F
MOKUOLOE         1200      75              1016.2S
NAWILIWILI       1200      75                N/A
WHOTS BUOY       NOT AVBL
BUOY 51028       NOT AVBL
$$

......................KEY........................................
  SKY/WX - SKY CONDITIONS/PRESENT WEATHER
  TMP    - TEMPERATURE IN FAHRENHEIT
  DWPT   - DEWPOINT IN FAHRENHEIT
  RH     - RELATIVE HUMIDITY IN PERCENT
  WIND   - DIRECTION AND SPEED /MPH FOR ISLANDS...KTS FOR BUOYS/
  PRES   - MEAN SEA LEVEL PRESSURE IN INCHES OF HG
  VSB    - VISIBILITY IN MILES
  HX     - HEAT INDEX
  WCI    - WIND CHILL INDEX
  VRB    - VARIABLE WIND DIRECTION
  N/A    - NOT AVAILABLE



USA.gov is the U.S. government's official web portal to all federal, state and local government web resources and services.